User: anonymous   Login
Location: ???????
(55.9142°N, 37.8256°E)
Time: 11:23:56
(UTC+00:00)
Language:

Cosmos 2333 Rocket - Orbit

View from above orbital plane
View from above orbital plane
View from above satellite
View from above satellite

Ground track
Ground track

The orbit data is extracted from the following two-line orbital elements,

1 24298U 96051B   24167.95013301 -.00000226  00000-0 -95680-4 0  9992
2 24298  70.8042  71.3823 0016915 340.8883  19.1600 14.12475363432448
Epoch (UTC): 15 June 2024 22:48:11
Eccentricity: 0.0016915
inclination: 70.8042°
perigee height: 838 km
apogee height: 863 km
right ascension of ascending node: 71.3823°
argument of perigee: 340.8883°
revolutions per day: 14.12475363
mean anomaly at epoch: 19.1600°
orbit number at epoch: 43244

The dashed part of the orbit path shows where the satellite is in the earth's shadow,  

DLR